This demonstration page uses our WeatherBlox Daily Observations layout. Learn more.

39.29038, -76.61219

Hourly Observations for July 15, 2018

Temp ( °F °C ) Dew Point ( °F °C ) Humidity (%) Winds ( mph kmh ) Pressure ( in mb ) Visibility ( mi km ) Precip ( " mm )
12:54 am 00:54 undefined 79 26.1 62 16.7 56 56 undefined N/A 30.08 1019 N/A 0 0
1:54 am 01:54 undefined 78 25.6 61 16.1 56 56 undefined N/A 30.07 1018 N/A 0 0
2:54 am 02:54 undefined 77 25 61 16.1 58 58 undefined N/A 30.05 1018 N/A 0 0
3:54 am 03:54 undefined 76 24.4 61 16.1 60 60 undefined N/A 30.05 1018 N/A 0 0
4:54 am 04:54 undefined 75 23.9 62 16.7 64 64 undefined N/A 30.04 1017 N/A 0 0
5:54 am 05:54 undefined 75 23.9 62 16.7 64 64 undefined N/A 30.04 1017 N/A 0 0
6:54 am 06:54 undefined 76 24.4 62 16.7 62 62 undefined N/A 30.03 1017 N/A 0 0
7:54 am 07:54 undefined 78 25.6 63 17.2 60 60 undefined N/A 30.03 1017 N/A 0 0
8:54 am 08:54 undefined 81 27.2 64 17.8 57 57 undefined N/A 30.02 1017 N/A 0 0
9:54 am 09:54 undefined 83 28.3 64 17.8 53 53 undefined N/A 30.01 1016 N/A 0 0
10:54 am 10:54 undefined 88 31.1 66 18.9 48 48 undefined N/A 30.02 1017 N/A 0 0
11:54 am 11:54 undefined 86 30 67 19.4 53 53 undefined N/A 30.03 1017 N/A 0 0
12:54 pm 12:54 undefined 81 27.2 71 21.7 72 72 undefined N/A 30.06 1018 N/A 0.01 0.254
1:54 pm 13:54 undefined 80 26.7 71 21.7 74 74 undefined N/A 30.04 1017 N/A 0 0
2:54 pm 14:54 undefined 77 25 73 22.8 88 88 undefined N/A 30.02 1017 N/A 0.12 3.048
3:54 pm 15:54 undefined 81 27.2 72 22.2 74 74 undefined N/A 30 1016 N/A 0 0
4:54 pm 16:54 undefined 86 30 72 22.2 63 63 undefined N/A 29.98 1015 N/A 0 0
5:54 pm 17:54 undefined 85 29.4 71 21.7 63 63 undefined N/A 29.97 1015 N/A 0 0
6:54 pm 18:54 undefined 86 30 70 21.1 59 59 undefined N/A 29.98 1015 N/A 0 0
7:54 pm 19:54 undefined 86 30 71 21.7 61 61 undefined N/A 29.98 1015 N/A 0 0
8:54 pm 20:54 undefined 85 29.4 71 21.7 63 63 undefined N/A 29.98 1015 N/A 0 0
9:54 pm 21:54 undefined 84 28.9 72 22.2 67 67 undefined N/A 29.99 1016 N/A 0 0
10:54 pm 22:54 undefined 83 28.3 72 22.2 70 70 undefined N/A 30.01 1016 N/A 0 0
11:54 pm 23:54 undefined 82 27.8 73 22.8 74 74 undefined N/A 30.01 1016 N/A 0 0

Powered by AerisWeather